Location: ???????
(55.4362°N, 38.1183°E)
Time: 14:14:45
(UTC+00:00)

USA 229 DEB - Visible Passes

Search period start: 22 October 2021 00:00
Search period end: 01 November 2021 00:00
Orbit: 948 x 1264 km, 63.4° (Epoch: 15 October)

Date Brightness Start Highest point End Pass type
(mag) Time Alt. Az. Time Alt. Az. Time Alt. Az.
22 Oct 4.2 01:28:26 41° SW 01:28:26 41° SW 01:35:16 10° S visible
22 Oct 5.5 03:16:15 10° W 03:17:25 10° W 03:18:35 10° WSW visible
22 Oct 4.9 15:23:22 10° SSE 15:27:29 18° ESE 15:29:47 15° E visible
22 Oct 3.5 17:10:45 10° SSW 17:17:07 64° SE 17:17:17 64° ESE visible
22 Oct 5.1 19:01:47 10° WSW 19:04:46 28° W 19:04:46 28° W visible
22 Oct 6.0 22:59:00 15° ESE 22:59:00 15° ESE 23:00:04 10° ESE visible
23 Oct 4.7 00:46:34 36° S 00:46:34 36° S 00:51:02 10° SSE visible
23 Oct 5.3 02:34:07 16° WSW 02:34:07 16° WSW 02:37:41 10° SW visible
23 Oct 5.3 14:41:30 10° ESE 14:43:19 11° ESE 14:45:10 10° E visible
23 Oct 3.8 16:26:24 10° SSW 16:32:30 47° SE 16:34:35 36° E visible
23 Oct 4.1 18:16:43 10° WSW 18:22:03 57° W 18:22:03 57° W visible
23 Oct 6.0 20:08:46 10° WNW 20:09:32 14° WNW 20:09:32 14° WNW visible
24 Oct 5.7 00:04:47 18° SE 00:04:47 18° SE 00:06:30 10° SE visible
24 Oct 5.4 01:52:20 18° SSW 01:52:20 18° SSW 01:54:47 10° SSW visible
24 Oct 4.2 15:42:23 10° S 15:48:00 33° ESE 15:51:43 20° ENE visible
24 Oct 3.6 17:31:48 10° SW 17:38:20 84° NW 17:39:10 71° NE visible
24 Oct 5.3 19:23:35 10° W 19:26:39 27° WNW 19:26:39 27° WNW visible
25 Oct 5.8 01:10:35 12° S 01:10:35 12° S 01:11:12 10° S visible
25 Oct 4.7 14:58:47 10° SSE 15:03:38 23° ESE 15:08:42 10° ENE visible
25 Oct 3.5 16:47:04 10° SW 16:53:32 76° SE 16:56:10 40° ENE visible
25 Oct 4.5 18:38:25 10° W 18:43:37 46° NW 18:43:37 46° NW visible
25 Oct 6.1 20:30:32 10° WNW 20:31:05 12° WNW 20:31:05 12° WNW visible
26 Oct 3.7 16:02:33 10° SSW 16:08:49 57° SE 16:13:03 23° ENE visible
26 Oct 4.0 17:53:19 10° WSW 17:59:51 61° NNW 18:00:30 58° N visible
26 Oct 5.5 19:45:26 10° WNW 19:47:57 23° WNW 19:47:57 23° WNW visible
27 Oct 4.1 15:18:19 10° S 15:24:15 41° ESE 15:29:51 13° ENE visible
27 Oct 3.7 17:08:18 10° WSW 17:14:52 74° NNW 17:17:18 43° NE visible
27 Oct 4.9 19:00:16 10° W 19:04:44 37° NW 19:04:44 37° NW visible
27 Oct 6.3 20:52:08 10° WNW 20:52:11 10° WNW 20:52:11 10° WNW visible
28 Oct 4.5 14:34:28 10° S 14:39:49 29° ESE 14:45:29 10° ENE visible
28 Oct 3.6 16:23:27 10° SW 16:29:59 88° SE 16:34:02 27° NE visible
28 Oct 4.4 18:15:06 10° W 18:21:27 49° NNW 18:21:27 49° NNW visible
28 Oct 5.8 20:07:09 10° WNW 20:08:54 19° NW 20:08:54 19° NW visible
29 Oct 3.6 15:38:48 10° SW 15:45:12 68° SE 15:50:42 17° NE visible
29 Oct 4.2 17:29:56 10° W 17:36:27 55° NNW 17:38:08 45° NNE visible
29 Oct 5.3 19:22:05 10° WNW 19:25:34 29° NW 19:25:34 29° NW visible
30 Oct 3.9 14:54:24 10° SSW 15:00:34 50° SE 15:07:12 10° NE visible
30 Oct 3.9 16:44:52 10° WSW 16:51:25 66° NNW 16:54:46 32° NE visible
30 Oct 4.7 18:36:57 10° WNW 18:42:12 41° NNW 18:42:12 41° NNW visible
30 Oct 6.1 20:28:41 10° NW 20:29:38 15° NW 20:29:38 15° NW visible
31 Oct 3.7 15:59:56 10° SW 16:06:28 81° NW 16:11:22 21° NE visible
31 Oct 4.4 17:51:47 10° W 17:58:15 47° N 17:58:48 46° N visible
31 Oct 5.6 19:43:44 10° WNW 19:46:14 23° NW 19:46:14 23° NW visible
